| time (UTC) | temp F | wind direction | speed knots | gust knots | rain 1hr in | rain 24hr in | rain mn in | humidity % | barometer mb |
| 20260508011544 | 50 | 150 | 0.9 | 3.5 | 0.41 | 0.73 | 0.44 | 56 | 1012.7 |
| 20260508010036 | 51 | 158 | 1.7 | 7.0 | 0.27 | 0.59 | 0.30 | 55 | 1012.4 |
| 20260508004535 | 52 | 146 | 1.7 | 10.4 | 0.00 | 0.43 | 0.03 | 54 | 1012.3 |
| 20260508003037 | 52 | 180 | 1.7 | 6.1 | 0.00 | 0.43 | 0.03 | 54 | 1012.0 |
| 20260508001537 | 53 | 171 | 2.6 | 9.6 | 0.00 | 0.43 | 0.03 | 52 | 1011.8 |
| 20260508000034 | 55 | 206 | 2.6 | 10.4 | 0.00 | 0.43 | 0.03 | 51 | 1011.4 |
| 20260507234532 | 56 | 113 | 4.3 | 13.0 | 0.00 | 0.43 | 0.03 | 49 | 1011.3 |
| 20260507233051 | 56 | 200 | 3.5 | 9.6 | 0.00 | 0.43 | 0.03 | 48 | 1011.1 |
| 20260507231537 | 56 | 198 | 1.7 | 9.6 | 0.00 | 0.43 | 0.03 | 48 | 1010.9 |
| 20260507230030 | 56 | 194 | 2.6 | 7.0 | 0.00 | 0.43 | 0.03 | 48 | 1010.8 |
| 20260507224531 | 58 | 181 | 2.6 | 7.8 | 0.00 | 0.43 | 0.03 | 47 | 1010.7 |
| 20260507223029 | 57 | 121 | 1.7 | 7.0 | 0.00 | 0.43 | 0.03 | 47 | 1010.6 |
| 20260507221534 | 57 | 205 | 1.7 | 8.7 | 0.00 | 0.43 | 0.03 | 46 | 1010.5 |
| 20260507220029 | 58 | 155 | 2.6 | 8.7 | 0.00 | 0.43 | 0.03 | 44 | 1010.2 |
| 20260507214526 | 59 | 135 | 4.3 | 12.2 | 0.00 | 0.43 | 0.03 | 43 | 1010.1 |
| 20260507213031 | 58 | 123 | 2.6 | 8.7 | 0.00 | 0.43 | 0.03 | 43 | 1010.1 |
| 20260507211524 | 59 | 168 | 3.5 | 7.8 | 0.00 | 0.43 | 0.03 | 42 | 1010.1 |
| 20260507210023 | 59 | 146 | 5.2 | 13.0 | 0.00 | 0.43 | 0.03 | 41 | 1010.0 |
| 20260507204523 | 59 | 173 | 3.5 | 13.0 | 0.00 | 0.43 | 0.03 | 42 | 1009.9 |
| 20260507203021 | 59 | 139 | 1.7 | 10.4 | 0.00 | 0.43 | 0.03 | 46 | 1009.9 |
| 20260507201521 | 59 | 139 | 2.6 | 8.7 | 0.00 | 0.43 | 0.03 | 45 | 1010.1 |
| 20260507200018 | 59 | 149 | 1.7 | 7.0 | 0.00 | 0.43 | 0.03 | 44 | 1010.2 |
| 20260507194518 | 60 | 130 | 2.6 | 6.1 | 0.00 | 0.43 | 0.03 | 45 | 1010.4 |
| 20260507193023 | 60 | 144 | 2.6 | 7.0 | 0.00 | 0.43 | 0.03 | 44 | 1010.5 |
| 20260507191527 | 60 | 136 | 0.9 | 8.7 | 0.00 | 0.43 | 0.03 | 53 | 1010.4 |
| 20260507190014 | 58 | 233 | 0.9 | 5.2 | 0.00 | 0.43 | 0.03 | 47 | 1010.5 |
| 20260507184510 | 59 | 205 | 4.3 | 13.0 | 0.00 | 0.43 | 0.03 | 47 | 1010.7 |
| 20260507183019 | 59 | 108 | 2.6 | 7.0 | 0.00 | 0.43 | 0.03 | 48 | 1010.7 |
| 20260507181508 | 60 | 160 | 3.5 | 9.6 | 0.00 | 0.43 | 0.03 | 47 | 1010.8 |
| 20260507180006 | 59 | 108 | 2.6 | 8.7 | 0.00 | 0.43 | 0.03 | 48 | 1011.0 |
| 20260507174507 | 59 | 118 | 0.9 | 7.8 | 0.00 | 0.44 | 0.03 | 52 | 1011.1 |
| 20260507173004 | 58 | 134 | 0.9 | 9.6 | 0.00 | 0.44 | 0.03 | 49 | 1011.3 |
| 20260507171610 | 60 | 166 | 2.6 | 7.8 | 0.00 | 0.44 | 0.03 | 50 | 1011.5 |
| 20260507170115 | 58 | 134 | 2.6 | 6.1 | 0.00 | 0.44 | 0.03 | 50 | 1011.8 |
| 20260507164559 | 58 | 110 | 1.7 | 7.8 | 0.00 | 0.44 | 0.03 | 55 | 1011.7 |
| 20260507163053 | 57 | 99 | 1.7 | 7.0 | 0.00 | 0.44 | 0.03 | 53 | 1011.9 |
| 20260507161603 | 57 | 63 | 1.7 | 8.7 | 0.00 | 0.44 | 0.03 | 53 | 1011.9 |
| 20260507160049 | 57 | 123 | 0.9 | 6.1 | 0.00 | 0.44 | 0.03 | 52 | 1012.1 |
| 20260507154545 | 56 | 200 | 0.9 | 4.3 | 0.03 | 0.44 | 0.03 | 51 | 1012.2 |
| 20260507153045 | 54 | 179 | 2.6 | 6.1 | 0.03 | 0.44 | 0.03 | 55 | 1012.5 |
| 20260507151541 | 55 | 127 | 1.7 | 8.7 | 0.03 | 0.44 | 0.03 | 53 | 1012.6 |
| 20260507150037 | 55 | 132 | 0.9 | 5.2 | 0.03 | 0.44 | 0.03 | 57 | 1012.9 |
| 20260507144534 | 53 | 146 | 2.6 | 8.7 | 0.00 | 0.41 | 0.00 | 56 | 1013.0 |
| 20260507143032 | 53 | 134 | 3.5 | 8.7 | 0.00 | 0.41 | 0.00 | 59 | 1013.1 |
| 20260507141530 | 52 | 156 | 1.7 | 6.1 | 0.00 | 0.41 | 0.00 | 61 | 1013.2 |
| 20260507140028 | 52 | 147 | 0.0 | 7.0 | 0.00 | 0.41 | 0.00 | 62 | 1013.5 |
| 20260507134525 | 52 | 120 | 0.9 | 2.6 | 0.00 | 0.59 | 0.00 | 69 | 1013.7 |
| 20260507133022 | 51 | 144 | 0.0 | 4.3 | 0.00 | 0.59 | 0.00 | 69 | 1013.6 |
| 20260507131527 | 50 | 141 | 0.9 | 2.6 | 0.00 | 0.59 | 0.00 | 73 | 1013.8 |
| 20260507130016 | 48 | 82 | 0.0 | 1.7 | 0.00 | 0.59 | 0.00 | 78 | 1013.7 |
| 20260507124517 | 46 | 64 | 0.0 | 1.7 | 0.00 | 0.59 | 0.00 | 83 | 1013.8 |
| 20260507123012 | 43 | 77 | 0.0 | 0.0 | 0.00 | 0.59 | 0.00 | 87 | 1013.9 |
| 20260507121512 | 42 | 169 | 0.0 | 0.0 | 0.00 | 0.59 | 0.00 | 91 | 1013.9 |
| 20260507120026 | 40 | 169 | 0.0 | 0.0 | 0.00 | 0.59 | 0.00 | 92 | 1013.8 |
| 20260507114510 | 38 | 169 | 0.0 | 0.0 | 0.00 | 0.59 | 0.00 | 92 | 1013.7 |
| 20260507113032 | 38 | 169 | 0.0 | 0.9 | 0.00 | 0.59 | 0.00 | 92 | 1013.6 |
| 20260507111509 | 0 | 0.0 | 0.0 | 0.00 | 0.59 | 0.00 | 1013.3 | ||
| 20260507110010 | 0 | 0.0 | 0.0 | 0.00 | 0.59 | 0.00 | 1013.4 | ||
| 20260507104602 | 0 | 0.0 | 0.0 | 0.00 | 0.59 | 0.00 | 1013.2 | ||
| 20260507103055 | 0 | 0.0 | 0.0 | 0.00 | 0.59 | 0.00 | 1013.0 | ||
| 20260507101558 | 0 | 0.0 | 0.0 | 0.00 | 0.59 | 0.00 | 1012.9 | ||
| 20260507100046 | 0 | 0.0 | 0.0 | 0.00 | 0.59 | 0.00 | 1012.9 | ||
| 20260507094549 | 0 | 0.0 | 0.0 | 0.00 | 0.61 | 0.00 | 1012.9 | ||
| 20260507093037 | 0 | 0.0 | 0.0 | 0.00 | 0.61 | 0.00 | 1012.9 | ||
| 20260507091533 | 0 | 0.0 | 0.0 | 0.00 | 0.61 | 0.00 | 1013.1 | ||
| 20260507090030 | 38 | 169 | 0.0 | 0.0 | 0.00 | 0.61 | 0.00 | 90 | 1013.0 |
| 20260507084528 | 39 | 169 | 0.0 | 0.0 | 0.00 | 0.71 | 0.00 | 89 | 1013.1 |
| 20260507083026 | 39 | 169 | 0.0 | 0.0 | 0.00 | 0.71 | 0.00 | 89 | 1013.0 |
| 20260507081531 | 40 | 169 | 0.0 | 0.0 | 0.00 | 0.71 | 0.00 | 88 | 1013.1 |
| 20260507080021 | 41 | 169 | 0.0 | 0.0 | 0.00 | 0.71 | 0.00 | 87 | 1013.0 |
| 20260507074528 | 42 | 169 | 0.0 | 0.0 | 0.00 | 0.71 | 0.00 | 85 | 1013.0 |
| 20260507073015 | 42 | 169 | 0.0 | 0.0 | 0.00 | 0.71 | 0.00 | 83 | 1013.0 |
| 20260507071513 | 43 | 169 | 0.0 | 0.0 | 0.00 | 0.71 | 0.00 | 83 | 1013.2 |
| 20260507070013 | 43 | 169 | 0.0 | 0.0 | 0.00 | 0.71 | 0.00 | 82 | 1013.1 |
| 20260507064508 | 44 | 169 | 0.0 | 0.0 | 0.00 | 0.71 | 0.00 | 84 | 1013.3 |
| 20260507063004 | 45 | 169 | 0.0 | 0.0 | 0.00 | 0.71 | 0.00 | 77 | 1013.2 |
| 20260507061502 | 46 | 169 | 0.0 | 0.0 | 0.00 | 0.71 | 0.00 | 76 | 1013.1 |
| 20260507060108 | 46 | 169 | 0.0 | 0.0 | 0.00 | 0.71 | 0.00 | 74 | 1013.2 |
| 20260507054559 | 46 | 169 | 0.0 | 0.0 | 0.00 | 0.72 | 0.00 | 74 | 1013.4 |
| 20260507053056 | 47 | 169 | 0.0 | 0.0 | 0.00 | 0.72 | 0.00 | 75 | 1013.7 |
| 20260507051554 | 47 | 155 | 0.0 | 0.0 | 0.00 | 0.72 | 0.00 | 75 | 1013.7 |
| 20260507050057 | 47 | 211 | 0.0 | 0.0 | 0.00 | 0.72 | 0.00 | 75 | 1013.9 |
| 20260507044553 | 47 | 211 | 0.0 | 0.0 | 0.00 | 0.73 | 0.00 | 74 | 1013.7 |
| 20260507043051 | 47 | 211 | 0.0 | 0.0 | 0.00 | 0.73 | 0.00 | 74 | 1013.6 |
| 20260507041549 | 48 | 211 | 0.0 | 0.0 | 0.00 | 0.73 | 0.00 | 74 | 1013.6 |
| 20260507040046 | 48 | 211 | 0.0 | 0.0 | 0.00 | 0.73 | 0.00 | 73 | 1013.5 |
| 20260507034602 | 48 | 211 | 0.0 | 0.0 | 0.00 | 0.73 | 0.73 | 73 | 1013.4 |
| 20260507033101 | 48 | 211 | 0.0 | 0.0 | 0.00 | 0.73 | 0.73 | 73 | 1013.5 |
| 20260507031543 | 48 | 211 | 0.0 | 0.0 | 0.00 | 0.73 | 0.73 | 72 | 1013.1 |
| 20260507030042 | 49 | 211 | 0.0 | 0.9 | 0.00 | 0.73 | 0.73 | 71 | 1012.9 |
| 20260507024552 | 49 | 211 | 0.0 | 0.9 | 0.00 | 0.73 | 0.73 | 70 | 1012.9 |
| 20260507023039 | 49 | 211 | 0.0 | 0.9 | 0.00 | 0.73 | 0.73 | 70 | 1012.9 |
| 20260507021539 | 49 | 214 | 0.0 | 0.0 | 0.00 | 0.73 | 0.73 | 69 | 1012.8 |
| 20260507020038 | 50 | 214 | 0.0 | 0.9 | 0.28 | 0.73 | 0.73 | 68 | 1012.5 |
| 20260507014535 | 50 | 207 | 0.0 | 0.9 | 0.40 | 0.73 | 0.73 | 68 | 1012.4 |
| 20260507013038 | 50 | 228 | 0.0 | 1.7 | 0.40 | 0.73 | 0.73 | 68 | 1012.2 |